Tracking 33197 objects as of 18-Feb-2026
HD Live streaming from Space Station
objects crossing your sky now

STARLINK-32503

Track STARLINK-32503 now!
10-day predictions
STARLINK-32503 is classified as:


NORAD ID: 62157
Int'l Code: 2024-224U
Perigee: 489.8 km
Apogee: 490.5 km
Inclination: 43.0 °
Period: 94.3 minutes
Semi major axis: 6861 km
RCS: Unknown
Launch date: November 30, 2024
Source: (USA)
Launch site: AIR FORCE EASTERN TEST RANGE (AFETR)
Your satellite tracking list
Your tracking list is empty




NASA's NSSDC Master Catalog

Two Line Element Set (TLE):
1 62157U 24224U   26048.67822795  .00023614  00000-0  86465-3 0  9999
2 62157  42.9958 278.5438 0000515 241.4094 118.6706 15.27588989 68906
Source of the keplerian elements: AFSPC